STARLINK-35166

Last updated on Mon Oct 06 2025 00:02:05 GMT+0000 (Coordinated Universal Time)

1 65499U 25198H 25278.50001156 .00120651 00000+0 21499-2 0 9991 2 65499 53.1587 280.4750 0001133 80.0831 85.5157 15.49230861 5586

Satellite not in orbit

STARLINK-35166